Location: Heiligenberg
(48.5381°N, 7.3897°E)
Time: 02:05:14
(UTC+00:00)

SL-16 R/B - Pass Details

Date: 26 May 2022
Orbit: 986 x 1006 km, 99.6° (Epoch: 26 June)

Event Time Altitude Azimuth Distance (km) Brightness Sun altitude
Exits shadow 01:14:42 13° 162° (SSE) 2,551 4.3 -16.4°
Maximum altitude 01:20:23 89° 250° (WSW) 1,006 2.5 -15.9°
Drops below altitude 10° 01:26:40 10° 344° (NNW) 2,785 5.5 -15.4°
Sets 01:29:10 0° 345° (NNW) 3,741 6.3 -15.2°
